Starlink 11747

operational
NORAD ID: 64322 Int'l Des: 2025-124 Owner: SPXS Country: US Constellation: starlink
LEOCIRCULAR

Über Starlink 11747

Beschreibung wird geladen...

Live-Position

3D-Globus wird geladen...

Nächste Überflüge

Höhenverlauf

Altitude vs Time

uPlot chart will show altitude changes over time

Zweizeiliger Elementsatz

1 64322U 25124F 25354.14741612 .00149304 00000-0 11454-2 0 9994
2 64322 42.9976 148.7444 0000760 311.7241 48.3561 15.70858533 30320
Epoch: 20. Dez. 2025 • Age: 7 hours

Aktueller Status

Höhe 356.7 km
Geschwindigkeit 7.70 km/s
Subsatellitenpunkt 26.34°N, 52.45°E
Startdatum 10. Juni 2025
Alter 0.5 years
Typ internet

Technische Details

Klassifizierung Payload
Masse 960.00 kg
Trockenmasse 910.00 kg
Gesamtmasse 960.00 kg
Länge 0.30 m
Durchmesser 4.10 m
Spannweite 29.00 m
Form Box + pan
Hersteller SPXS
Bus-Typ Starlink V2MD
Phasenstatus In Orbit
Besitzer/Staat SPXS/US

Große Konstellationen

Loading constellations...